Tracking 18987 objects as of 17-Feb-2018
HD Live streaming from Space Station
objects crossing your sky now

NOAA 16 DEB

Track NOAA 16 DEB now!
10-day predictions


NORAD ID: 41528
Int'l Code: 2000-055NC
Perigee: 831.3 km
Apogee: 866.7 km
Inclination: 98.8 °
Period: 101.8 minutes
Semi major axis: 7219 km
RCS: Unknown
Launch date: September 21, 2000
Source: United States (US)
Launch site: AIR FORCE WESTERN TEST RANGE (AFWTR)

Note: This is SATELLITE DEBRIS
aabbcc
Your satellite tracking list
Your tracking list is empty




NASA's NSSDC Master Catalog

Two Line Element Set (TLE):
1 41528U 00055NC  18048.14644695  .00001294  00000-0  68743-3 0  9997
2 41528  98.7957 117.0358 0024516  43.9157 316.3960 14.15146452 98614
Source of the keplerian elements: AFSPC